KB2UHF-8 Weather Reports


Display with metric or nautical units.
time (UTC)temp
F
wind
direction
speed
MPH
gust
MPH
rain 1hr
in
rain 24hr
in
rain mn
in
humidity
%
barometer
mb
20260506113516 34 293 4.0 8.0 0.00 0.00 0.00 75 1013.3
20260506112516 34 293 4.0 8.0 0.00 0.00 0.00 74 1013.1
20260506111516 34 293 4.0 7.0 0.00 0.00 0.00 74 1012.9
20260506110516 34 293 3.0 7.0 0.00 0.00 0.00 75 1012.9
20260506105516 34 293 3.0 7.0 0.00 0.00 0.00 74 1012.9
20260506104516 34 293 3.0 7.0 0.00 0.00 0.00 75 1012.9
20260506103516 33 293 4.0 8.0 0.00 0.00 0.00 76 1012.8
20260506102516 33 293 3.0 7.0 0.00 0.00 0.00 76 1012.7
20260506101516 34 293 2.0 6.0 0.00 0.00 0.00 76 1012.8
20260506100516 34 293 3.0 5.0 0.00 0.00 0.00 75 1012.4
20260506095536 33 293 2.0 4.0 0.00 0.00 0.00 76 1012.4
20260506094536 34 293 2.0 3.0 0.00 0.00 0.00 75 1012.4
20260506093515 34 293 2.0 4.0 0.00 0.00 0.00 75 1012.3
20260506092516 34 293 2.0 6.0 0.00 0.00 0.00 75 1012.2
20260506091515 34 270 2.0 3.0 0.00 0.00 0.00 75 1012.3
20260506090515 35 293 2.0 3.0 0.00 0.00 0.00 73 1012.5
20260506085516 36 293 2.0 3.0 0.00 0.00 0.00 71 1012.3
20260506084516 36 293 3.0 4.0 0.00 0.00 0.00 70 1012.2
20260506083515 36 293 3.0 5.0 0.00 0.00 0.00 71 1012.2
20260506082515 36 293 3.0 8.0 0.00 0.00 0.00 73 1012.3
20260506081516 35 293 4.0 7.0 0.00 0.00 0.00 76 1012.1
20260506080516 33 293 4.0 7.0 0.00 0.00 0.00 80 1011.9
20260506073516 33 270 3.0 4.0 0.00 0.00 0.00 78 1011.8
20260506072536 34 270 2.0 4.0 0.00 0.00 0.00 76 1011.6
20260506071516 35 270 2.0 3.0 0.00 0.00 0.00 74 1011.4
20260506070516 35 270 2.0 4.0 0.00 0.00 0.00 74 1011.4
20260506061515 37 270 2.0 3.0 0.00 0.00 0.00 69 1011.6
20260506060515 37 270 2.0 3.0 0.00 0.00 0.00 69 1011.9
20260506050555 39 270 2.0 2.0 0.00 0.00 0.00 60 1011.4
20260506044516 40 293 2.0 3.0 0.00 0.00 0.00 58 1011.1
20260506043516 41 293 1.0 3.0 0.00 0.00 0.00 56 1011.3
20260506042516 41 293 1.0 2.0 0.00 0.00 0.00 56 1011.2
20260506041516 41 293 2.0 2.0 0.00 0.00 0.00 55 1011.4
20260506040516 41 293 1.0 2.0 0.00 0.00 0.00 54 1011.2
20260506035516 41 293 1.0 2.0 0.00 0.00 0.00 54 1011.1
20260506034516 42 293 2.0 3.0 0.00 0.00 0.00 55 1011.2
20260506033516 42 293 1.0 2.0 0.00 0.00 0.00 53 1011.1
20260506032516 42 0.0 2.0 0.00 0.00 0.00 52 1011.2
20260506031516 42 0.0 2.0 0.00 0.00 0.00 52 1011.0
20260506030516 43 293 1.0 2.0 0.00 0.00 0.00 51 1011.2
20260506025516 44 293 1.0 2.0 0.00 0.00 0.00 49 1011.1
20260506024536 44 293 1.0 3.0 0.00 0.00 0.00 48 1011.0
20260506023516 44 315 1.0 3.0 0.00 0.00 0.00 48 1011.0
20260506022516 44 315 1.0 5.0 0.00 0.00 0.00 47 1010.7
20260506021516 45 315 2.0 5.0 0.00 0.00 0.00 47 1010.6
20260506020536 45 315 1.0 3.0 0.00 0.00 0.00 45 1010.4
20260506015516 45 315 2.0 4.0 0.00 0.00 0.00 45 1010.3
20260506014516 45 315 2.0 4.0 0.00 0.00 0.00 45 1010.1
20260506013536 46 315 2.0 5.0 0.00 0.00 0.00 45 1009.9
20260506012516 46 315 2.0 3.0 0.00 0.00 0.00 43 1009.9
20260506011516 46 315 3.0 5.0 0.00 0.00 0.00 44 1009.9
20260506010516 46 315 2.0 5.0 0.00 0.00 0.00 44 1009.5
20260506005516 46 315 3.0 5.0 0.00 0.00 0.00 44 1009.6
20260506004556 47 315 4.0 9.0 0.00 0.00 0.00 43 1009.5
20260506003516 48 315 4.0 9.0 0.00 0.00 0.00 42 1009.4
20260506002516 48 315 6.0 12.0 0.00 0.00 0.00 42 1009.5
20260506001515 48 293 3.0 6.0 0.00 0.00 0.00 44 1009.4
20260506000516 49 315 5.0 13.0 0.00 0.00 0.00 42 1009.3
20260505235516 49 293 7.0 14.0 0.00 0.00 0.00 41 1009.2
20260505234516 49 315 6.0 16.0 0.00 0.00 0.00 39 1009.3
20260505233516 49 315 8.0 15.0 0.00 0.00 0.00 41 1009.2
20260505232556 50 293 6.0 13.0 0.00 0.00 0.00 39 1009.1
20260505231515 50 293 6.0 13.0 0.00 0.00 0.00 39 1009.1
20260505230516 49 293 10.0 20.0 0.00 0.00 0.00 38 1009.2
20260505225516 50 270 9.0 15.0 0.00 0.00 0.00 38 1009.3
20260505224516 50 270 9.0 16.0 0.00 0.00 0.00 38 1009.3
20260505223515 50 315 8.0 17.0 0.00 0.00 0.00 39 1009.3
20260505222515 50 293 8.0 16.0 0.00 0.00 0.00 37 1009.0
20260505221515 50 293 6.0 12.0 0.00 0.00 0.00 38 1009.2
20260505220515 51 293 9.0 15.0 0.00 0.00 0.00 36 1009.0
20260505215536 51 270 7.0 15.0 0.00 0.00 0.00 38 1009.1
20260505214515 50 315 9.0 17.0 0.00 0.00 0.00 39 1009.0
20260505213516 50 270 9.0 19.0 0.00 0.00 0.00 40 1009.1
20260505212516 51 270 9.0 17.0 0.00 0.00 0.00 37 1009.1
20260505211535 53 270 10.0 20.0 0.00 0.00 0.00 36 1009.2
20260505210515 52 270 8.0 16.0 0.00 0.00 0.00 39 1009.1
20260505205515 51 270 6.0 13.0 0.00 0.00 0.00 38 1009.1
20260505204515 51 293 9.0 16.0 0.00 0.00 0.00 38 1009.3
20260505203515 51 293 8.0 16.0 0.00 0.00 0.00 40 1009.5
20260505202516 50 293 10.0 17.0 0.00 0.00 0.00 39 1009.4
20260505201515 50 293 11.0 19.0 0.00 0.00 0.00 38 1009.3
20260505200515 50 293 10.0 18.0 0.00 0.00 0.00 39 1009.5
20260505195537 51 270 9.0 18.0 0.00 0.00 0.00 40 1009.5
20260505194515 50 293 8.0 15.0 0.00 0.00 0.00 40 1009.5
20260505193515 52 270 11.0 26.0 0.00 0.00 0.00 37 1009.7
20260505192516 51 270 9.0 16.0 0.00 0.00 0.00 38 1009.4
20260505191515 49 270 8.0 16.0 0.00 0.00 0.00 41 1009.5
20260505190515 50 248 8.0 17.0 0.00 0.00 0.00 37 1009.5
20260505185537 51 270 10.0 19.0 0.00 0.00 0.00 38 1009.6
20260505184515 51 270 8.0 14.0 0.00 0.00 0.00 35 1009.6
20260505183515 51 270 11.0 21.0 0.00 0.00 0.00 34 1009.5
20260505182515 51 293 9.0 17.0 0.00 0.00 0.00 37 1009.4
20260505181515 50 293 11.0 20.0 0.00 0.00 0.00 35 1009.2
20260505180515 52 293 10.0 22.0 0.00 0.00 0.00 36 1009.3
20260505175517 51 293 9.0 19.0 0.00 0.00 0.00 37 1009.1
20260505174517 51 315 9.0 15.0 0.00 0.00 0.00 38 1009.2
20260505173517 50 270 9.0 15.0 0.00 0.00 0.00 36 1009.3
20260505172517 50 270 12.0 20.0 0.00 0.00 0.00 38 1009.2
20260505171517 49 270 8.0 20.0 0.00 0.00 0.00 40 1009.3
20260505170517 49 248 10.0 18.0 0.00 0.00 0.00 38 1009.3
20260505165517 49 270 8.0 19.0 0.00 0.00 0.00 38 1009.2
20260505164517 48 248 9.0 16.0 0.00 0.00 0.00 38 1009.4
20260505163517 49 270 8.0 19.0 0.00 0.00 0.00 40 1009.5
20260505162517 49 315 7.0 14.0 0.00 0.00 0.00 40 1009.3
20260505161517 49 315 9.0 16.0 0.00 0.00 0.00 40 1009.3
20260505160517 48 270 8.0 17.0 0.00 0.00 0.00 37 1009.1
20260505152537 49 270 6.0 14.0 0.00 0.00 0.00 40 1009.0
20260505151517 47 315 6.0 11.0 0.00 0.00 0.00 41 1008.9
20260505150517 48 338 7.0 17.0 0.00 0.00 0.00 43 1008.9
20260505140517 46 293 6.0 11.0 0.00 0.00 0.00 49 1008.9
20260505124517 43 293 5.0 9.0 0.00 0.00 0.00 58 1008.6
20260505123517 42 270 5.0 9.0 0.00 0.00 0.00 58 1008.5
20260505122517 42 270 5.0 10.0 0.00 0.00 0.00 59 1008.5
20260505121537 41 270 4.0 9.0 0.00 0.00 0.00 61 1008.2
20260505120516 41 270 4.0 8.0 0.00 0.00 0.00 60 1008.1
20260505115517 40 270 4.0 9.0 0.00 0.00 0.00 61 1007.7
20260505114517 40 270 3.0 7.0 0.00 0.00 0.00 61 1007.4